Precipitable_Water
0.07 0.07 0.07 0.07 0.07 0.07 0.08 0.08 0.08 0.08 0.08 0.08 0.08 0.08 0.08 0.08 0.08 0.07 0.08 0.08 0.09 0.10 0.12 0.11 0.12 0.14 0.15 0.16 0.17 0.17 0.17 0.17 0.19 0.20 0.20 0.20 0.20 0.20 0.21 0.22 0.23 0.23 0.23 0.25 0.25 0.27 0.27 0.29 0.31 0.33 0.35 0.36 0.37 0.38 0.38 0.38 0.38 0.39 0.37 0.36 0.36 0.38 0.40 0.41 0.42 0.42 0.43 0.43 0.43 0.44 0.45 0.46 0.46 0.47
0.07 0.07 0.07 0.07 0.07 0.07 0.07 0.07 0.07 0.07 0.07 0.07 0.07 0.07 0.07 0.07 0.07 0.07 0.07 0.08 0.10 0.10 0.12 0.12 0.11 0.13 0.14 0.15 0.16 0.17 0.17 0.17 0.18 0.19 0.20 0.19 0.19 0.20 0.21 0.22 0.22 0.22 0.22 0.23 0.24 0.26 0.28 0.29 0.30 0.32 0.34 0.36 0.37 0.39 0.39 0.39 0.39 0.39 0.39 0.39 0.37 0.36 0.36 0.36 0.38 0.39 0.39 0.39 0.39 0.39 0.40 0.41 0.42 0.43
0.06 0.06 0.06 0.06 0.06 0.07 0.07 0.07 0.07 0.07 0.07 0.07 0.08 0.08 0.08 0.08 0.08 0.07 0.07 0.06 0.07 0.09 0.09 0.10 0.12 0.13 0.13 0.14 0.15 0.16 0.17 0.16 0.18 0.18 0.19 0.20 0.21 0.21 0.21 0.22 0.22 0.22 0.22 0.22 0.22 0.24 0.26 0.27 0.29 0.30 0.32 0.33 0.35 0.36 0.40 0.41 0.41 0.42 0.41 0.42 0.42 0.41 0.38 0.37 0.36 0.36 0.36 0.36 0.36 0.36 0.36 0.37 0.39 0.41
0.06 0.06 0.06 0.06 0.06 0.06 0.06 0.06 0.06 0.07 0.07 0.08 0.08 0.07 0.07 0.07 0.07 0.07 0.07 0.06 0.06 0.07 0.08 0.09 0.10 0.11 0.11 0.11 0.11 0.13 0.14 0.16 0.16 0.17 0.18 0.19 0.20 0.21 0.21 0.21 0.21 0.22 0.22 0.21 0.22 0.23 0.25 0.26 0.27 0.28 0.30 0.31 0.33 0.34 0.36 0.40 0.41 0.41 0.42 0.42 0.42 0.42 0.41 0.39 0.38 0.37 0.36 0.36 0.37 0.36 0.36 0.36 0.36 0.38
0.05 0.05 0.05 0.05 0.06 0.06 0.06 0.06 0.06 0.07 0.07 0.07 0.07 0.07 0.07 0.06 0.07 0.07 0.06 0.06 0.06 0.06 0.07 0.08 0.08 0.08 0.10 0.11 0.12 0.12 0.12 0.13 0.14 0.14 0.15 0.17 0.18 0.20 0.20 0.20 0.20 0.21 0.21 0.21 0.21 0.21 0.22 0.24 0.25 0.26 0.27 0.29 0.32 0.33 0.35 0.38 0.38 0.41 0.43 0.43 0.42 0.41 0.41 0.40 0.40 0.40 0.39 0.38 0.37 0.37 0.37 0.37 0.37 0.36
0.05 0.06 0.05 0.05 0.06 0.06 0.06 0.06 0.06 0.06 0.06 0.06 0.06 0.06 0.06 0.06 0.06 0.06 0.05 0.05 0.05 0.05 0.06 0.06 0.07 0.07 0.07 0.07 0.09 0.09 0.10 0.12 0.14 0.13 0.12 0.14 0.17 0.18 0.18 0.19 0.19 0.20 0.20 0.19 0.20 0.21 0.21 0.22 0.24 0.24 0.25 0.26 0.28 0.30 0.35 0.36 0.37 0.40 0.42 0.42 0.41 0.41 0.40 0.40 0.40 0.39 0.38 0.37 0.36 0.36 0.36 0.37 0.37 0.38
0.05 0.05 0.05 0.05 0.06 0.06 0.06 0.06 0.06 0.06 0.06 0.06 0.06 0.06 0.06 0.06 0.06 0.06 0.06 0.06 0.06 0.06 0.05 0.06 0.06 0.06 0.06 0.06 0.06 0.07 0.08 0.10 0.11 0.13 0.15 0.13 0.14 0.17 0.18 0.18 0.19 0.19 0.19 0.18 0.18 0.19 0.20 0.21 0.23 0.24 0.24 0.25 0.27 0.27 0.28 0.34 0.37 0.39 0.40 0.40 0.40 0.40 0.39 0.38 0.38 0.37 0.36 0.35 0.34 0.34 0.35 0.35 0.35 0.36
0.05 0.05 0.05 0.05 0.05 0.06 0.06 0.06 0.06 0.06 0.06 0.06 0.06 0.06 0.06 0.06 0.06 0.06 0.06 0.06 0.06 0.06 0.06 0.07 0.08 0.08 0.08 0.07 0.07 0.07 0.07 0.08 0.09 0.12 0.14 0.15 0.13 0.14 0.16 0.17 0.18 0.18 0.18 0.18 0.18 0.19 0.19 0.20 0.22 0.23 0.24 0.24 0.25 0.26 0.28 0.29 0.34 0.37 0.38 0.38 0.38 0.38 0.37 0.36 0.35 0.34 0.34 0.33 0.32 0.32 0.33 0.33 0.34 0.35
0.05 0.05 0.05 0.05 0.06 0.06 0.06 0.06 0.06 0.06 0.06 0.06 0.06 0.06 0.06 0.06 0.06 0.06 0.06 0.06 0.07 0.06 0.06 0.05 0.06 0.06 0.07 0.08 0.09 0.09 0.08 0.07 0.07 0.09 0.11 0.14 0.14 0.12 0.12 0.15 0.17 0.18 0.18 0.18 0.18 0.19 0.19 0.19 0.21 0.23 0.24 0.24 0.23 0.24 0.26 0.27 0.29 0.33 0.34 0.35 0.35 0.35 0.34 0.33 0.32 0.31 0.31 0.31 0.31 0.31 0.31 0.32 0.32 0.33
0.06 0.06 0.06 0.06 0.06 0.06 0.06 0.06 0.06 0.06 0.06 0.06 0.06 0.06 0.06 0.06 0.06 0.06 0.06 0.06 0.06 0.06 0.06 0.06 0.05 0.05 0.05 0.05 0.07 0.08 0.09 0.09 0.08 0.07 0.07 0.10 0.13 0.15 0.13 0.12 0.14 0.16 0.17 0.17 0.17 0.17 0.19 0.20 0.20 0.22 0.24 0.24 0.23 0.22 0.23 0.24 0.26 0.28 0.30 0.32 0.32 0.31 0.30 0.30 0.30 0.30 0.29 0.29 0.29 0.29 0.29 0.29 0.30 0.31
0.06 0.06 0.06 0.06 0.06 0.06 0.06 0.06 0.06 0.06 0.06 0.06 0.06 0.07 0.07 0.07 0.07 0.06 0.06 0.06 0.06 0.06 0.06 0.06 0.06 0.06 0.06 0.06 0.06 0.06 0.07 0.09 0.10 0.09 0.08 0.07 0.09 0.12 0.14 0.14 0.14 0.15 0.16 0.16 0.17 0.17 0.17 0.18 0.19 0.20 0.23 0.23 0.23 0.22 0.22 0.23 0.24 0.25 0.25 0.27 0.28 0.28 0.28 0.28 0.28 0.28 0.28 0.27 0.26 0.27 0.28 0.28 0.28 0.29
0.06 0.06 0.06 0.06 0.06 0.06 0.06 0.06 0.06 0.07 0.07 0.07 0.07 0.07 0.07 0.07 0.07 0.07 0.07 0.07 0.07 0.06 0.06 0.06 0.06 0.06 0.06 0.06 0.06 0.06 0.06 0.06 0.08 0.10 0.09 0.07 0.08 0.10 0.11 0.13 0.14 0.15 0.16 0.16 0.16 0.17 0.18 0.18 0.18 0.19 0.20 0.22 0.22 0.22 0.22 0.22 0.23 0.24 0.24 0.24 0.24 0.24 0.24 0.24 0.25 0.25 0.25 0.26 0.26 0.26 0.27 0.27 0.28 0.28
0.06 0.06 0.06 0.06 0.06 0.07 0.07 0.07 0.07 0.07 0.07 0.07 0.07 0.07 0.07 0.07 0.07 0.07 0.07 0.07 0.07 0.06 0.06 0.06 0.06 0.06 0.06 0.06 0.06 0.05 0.05 0.05 0.06 0.08 0.11 0.10 0.09 0.09 0.10 0.10 0.13 0.13 0.13 0.14 0.15 0.15 0.16 0.16 0.17 0.17 0.17 0.18 0.20 0.21 0.22 0.21 0.22 0.23 0.23 0.23 0.23 0.23 0.23 0.23 0.24 0.24 0.25 0.25 0.26 0.26 0.26 0.27 0.27 0.27
0.07 0.07 0.07 0.07 0.07 0.07 0.07 0.07 0.07 0.07 0.08 0.08 0.08 0.08 0.07 0.07 0.07 0.07 0.07 0.07 0.07 0.07 0.06 0.06 0.06 0.06 0.06 0.06 0.06 0.06 0.05 0.06 0.06 0.07 0.09 0.10 0.11 0.11 0.10 0.10 0.11 0.12 0.13 0.15 0.14 0.14 0.16 0.16 0.16 0.16 0.15 0.15 0.17 0.19 0.20 0.20 0.21 0.21 0.21 0.22 0.22 0.22 0.22 0.23 0.23 0.24 0.24 0.24 0.24 0.24 0.25 0.26 0.26 0.27
0.07 0.07 0.07 0.07 0.07 0.07 0.07 0.07 0.07 0.07 0.08 0.08 0.08 0.08 0.08 0.08 0.08 0.08 0.07 0.07 0.07 0.07 0.07 0.07 0.07 0.06 0.06 0.06 0.06 0.06 0.06 0.06 0.06 0.06 0.08 0.09 0.11 0.12 0.11 0.10 0.12 0.13 0.14 0.15 0.14 0.14 0.16 0.16 0.15 0.15 0.14 0.14 0.16 0.17 0.17 0.18 0.19 0.19 0.20 0.20 0.20 0.21 0.21 0.21 0.22 0.22 0.22 0.22 0.23 0.23 0.24 0.25 0.25 0.25
0.07 0.07 0.07 0.08 0.08 0.08 0.08 0.08 0.08 0.08 0.08 0.08 0.08 0.08 0.09 0.09 0.09 0.09 0.09 0.08 0.08 0.08 0.07 0.07 0.07 0.07 0.07 0.07 0.07 0.07 0.07 0.06 0.06 0.06 0.06 0.08 0.09 0.11 0.12 0.12 0.11 0.13 0.15 0.14 0.13 0.13 0.15 0.16 0.15 0.14 0.14 0.14 0.16 0.16 0.16 0.17 0.17 0.18 0.18 0.18 0.18 0.18 0.18 0.18 0.19 0.20 0.20 0.21 0.22 0.23 0.24 0.25 0.25 0.25
0.08 0.08 0.08 0.08 0.08 0.08 0.08 0.08 0.08 0.08 0.08 0.08 0.08 0.08 0.08 0.09 0.09 0.10 0.10 0.10 0.10 0.09 0.08 0.08 0.08 0.08 0.07 0.07 0.07 0.07 0.07 0.07 0.06 0.06 0.06 0.07 0.08 0.10 0.12 0.12 0.13 0.13 0.16 0.16 0.15 0.13 0.14 0.15 0.14 0.13 0.14 0.15 0.15 0.14 0.14 0.15 0.16 0.16 0.16 0.16 0.16 0.17 0.17 0.18 0.19 0.20 0.20 0.21 0.21 0.22 0.22 0.23 0.24 0.25
0.08 0.08 0.08 0.08 0.08 0.08 0.08 0.08 0.08 0.08 0.08 0.08 0.08 0.08 0.08 0.09 0.09 0.09 0.10 0.10 0.10 0.10 0.10 0.09 0.08 0.09 0.09 0.08 0.08 0.08 0.08 0.07 0.07 0.06 0.06 0.06 0.07 0.09 0.11 0.13 0.14 0.14 0.16 0.15 0.14 0.13 0.14 0.15 0.14 0.13 0.14 0.14 0.13 0.13 0.13 0.14 0.15 0.16 0.16 0.16 0.16 0.17 0.17 0.18 0.19 0.20 0.21 0.21 0.21 0.22 0.22 0.23 0.23 0.24
0.08 0.08 0.08 0.08 0.08 0.08 0.08 0.08 0.08 0.08 0.08 0.08 0.08 0.08 0.09 0.09 0.09 0.09 0.09 0.09 0.09 0.10 0.10 0.10 0.10 0.10 0.10 0.10 0.09 0.09 0.08 0.08 0.07 0.07 0.07 0.07 0.08 0.10 0.12 0.14 0.15 0.15 0.16 0.16 0.14 0.11 0.12 0.15 0.14 0.14 0.14 0.14 0.13 0.13 0.14 0.15 0.15 0.15 0.15 0.16 0.16 0.17 0.17 0.18 0.19 0.20 0.21 0.21 0.22 0.22 0.23 0.23 0.24 0.24
0.08 0.08 0.08 0.08 0.08 0.08 0.08 0.08 0.08 0.09 0.09 0.09 0.08 0.08 0.09 0.09 0.09 0.09 0.10 0.10 0.10 0.10 0.09 0.09 0.09 0.09 0.09 0.10 0.10 0.10 0.09 0.09 0.08 0.08 0.08 0.07 0.07 0.09 0.10 0.10 0.12 0.13 0.15 0.16 0.15 0.12 0.13 0.14 0.13 0.13 0.13 0.13 0.12 0.13 0.14 0.14 0.14 0.15 0.15 0.15 0.16 0.17 0.17 0.18 0.19 0.20 0.20 0.21 0.22 0.23 0.23 0.23 0.24 0.24
0.08 0.08 0.08 0.08 0.08 0.08 0.08 0.08 0.08 0.08 0.08 0.08 0.08 0.09 0.09 0.09 0.09 0.09 0.10 0.11 0.11 0.10 0.10 0.10 0.10 0.10 0.10 0.10 0.10 0.10 0.10 0.10 0.10 0.09 0.08 0.07 0.07 0.07 0.08 0.10 0.11 0.12 0.14 0.15 0.15 0.13 0.12 0.13 0.13 0.12 0.13 0.12 0.12 0.13 0.13 0.13 0.13 0.14 0.14 0.15 0.16 0.18 0.19 0.19 0.20 0.20 0.21 0.22 0.22 0.23 0.23 0.24 0.24 0.25
0.08 0.08 0.08 0.08 0.08 0.08 0.08 0.08 0.08 0.08 0.08 0.08 0.09 0.09 0.09 0.09 0.09 0.09 0.10 0.10 0.10 0.10 0.10 0.10 0.10 0.10 0.09 0.10 0.10 0.09 0.10 0.09 0.10 0.10 0.08 0.07 0.07 0.07 0.08 0.09 0.10 0.12 0.13 0.14 0.15 0.13 0.12 0.13 0.13 0.12 0.13 0.13 0.13 0.13 0.13 0.13 0.13 0.13 0.13 0.15 0.16 0.18 0.20 0.20 0.21 0.22 0.22 0.22 0.23 0.23 0.24 0.25 0.25 0.26
0.07 0.07 0.07 0.07 0.07 0.07 0.08 0.08 0.08 0.08 0.08 0.09 0.08 0.08 0.09 0.08 0.08 0.09 0.08 0.09 0.09 0.09 0.09 0.09 0.09 0.09 0.09 0.09 0.10 0.11 0.11 0.11 0.11 0.11 0.10 0.10 0.08 0.07 0.08 0.09 0.10 0.10 0.12 0.14 0.15 0.12 0.12 0.12 0.13 0.12 0.11 0.10 0.12 0.13 0.13 0.12 0.12 0.12 0.13 0.15 0.17 0.19 0.20 0.21 0.22 0.23 0.23 0.23 0.24 0.25 0.26 0.27 0.27 0.28
0.07 0.07 0.07 0.07 0.07 0.07 0.07 0.08 0.08 0.08 0.08 0.07 0.07 0.07 0.08 0.08 0.08 0.10 0.09 0.09 0.09 0.09 0.09 0.09 0.09 0.09 0.09 0.09 0.08 0.08 0.09 0.09 0.09 0.11 0.11 0.11 0.10 0.09 0.09 0.09 0.10 0.10 0.11 0.14 0.15 0.12 0.12 0.12 0.11 0.12 0.11 0.10 0.10 0.12 0.12 0.12 0.12 0.13 0.13 0.15 0.16 0.18 0.19 0.21 0.22 0.23 0.24 0.25 0.26 0.26 0.26 0.26 0.27 0.26
0.07 0.07 0.07 0.07 0.07 0.07 0.07 0.07 0.08 0.08 0.08 0.08 0.08 0.08 0.09 0.09 0.10 0.10 0.09 0.08 0.09 0.09 0.09 0.09 0.09 0.09 0.09 0.09 0.09 0.08 0.08 0.09 0.09 0.09 0.10 0.11 0.11 0.10 0.10 0.10 0.10 0.10 0.12 0.14 0.14 0.12 0.11 0.11 0.10 0.12 0.12 0.12 0.12 0.11 0.12 0.14 0.15 0.15 0.15 0.15 0.17 0.20 0.20 0.20 0.22 0.23 0.24 0.24 0.25 0.25 0.25 0.26 0.26 0.25
0.07 0.07 0.07 0.07 0.07 0.07 0.08 0.08 0.09 0.08 0.09 0.09 0.09 0.10 0.10 0.09 0.09 0.10 0.11 0.09 0.09 0.10 0.10 0.09 0.09 0.09 0.09 0.09 0.09 0.09 0.09 0.09 0.09 0.09 0.10 0.11 0.11 0.12 0.12 0.11 0.10 0.10 0.11 0.14 0.14 0.12 0.11 0.10 0.11 0.12 0.12 0.12 0.11 0.11 0.10 0.12 0.15 0.17 0.17 0.18 0.20 0.21 0.20 0.20 0.22 0.22 0.23 0.23 0.23 0.24 0.25 0.25 0.25 0.25
0.07 0.07 0.07 0.07 0.07 0.08 0.09 0.09 0.09 0.09 0.09 0.10 0.10 0.09 0.08 0.09 0.10 0.11 0.12 0.11 0.10 0.10 0.09 0.09 0.09 0.09 0.09 0.09 0.09 0.09 0.09 0.10 0.10 0.10 0.10 0.11 0.12 0.12 0.13 0.13 0.13 0.13 0.13 0.14 0.15 0.13 0.12 0.11 0.13 0.12 0.12 0.12 0.11 0.11 0.11 0.11 0.13 0.18 0.18 0.19 0.20 0.20 0.22 0.23 0.23 0.23 0.24 0.24 0.24 0.24 0.24 0.25 0.25 0.25
0.07 0.07 0.07 0.08 0.08 0.08 0.08 0.09 0.09 0.10 0.10 0.10 0.10 0.09 0.09 0.11 0.11 0.11 0.11 0.10 0.10 0.09 0.09 0.09 0.09 0.09 0.09 0.09 0.09 0.10 0.10 0.11 0.11 0.11 0.11 0.11 0.11 0.12 0.12 0.13 0.13 0.15 0.14 0.14 0.15 0.14 0.13 0.12 0.13 0.13 0.13 0.12 0.11 0.11 0.11 0.12 0.15 0.18 0.18 0.19 0.19 0.20 0.22 0.24 0.24 0.24 0.24 0.25 0.25 0.26 0.26 0.25 0.26 0.26
0.07 0.07 0.08 0.08 0.08 0.08 0.09 0.09 0.09 0.10 0.10 0.10 0.10 0.10 0.10 0.10 0.11 0.11 0.10 0.10 0.10 0.09 0.09 0.09 0.09 0.09 0.10 0.10 0.11 0.11 0.12 0.12 0.13 0.13 0.12 0.12 0.12 0.13 0.13 0.14 0.14 0.15 0.15 0.15 0.15 0.15 0.14 0.13 0.13 0.13 0.13 0.13 0.13 0.13 0.13 0.13 0.15 0.17 0.19 0.18 0.18 0.20 0.23 0.24 0.24 0.23 0.23 0.25 0.25 0.24 0.23 0.23 0.22 0.23
0.07 0.07 0.07 0.08 0.08 0.08 0.08 0.09 0.09 0.09 0.10 0.11 0.11 0.11 0.11 0.11 0.11 0.11 0.11 0.11 0.10 0.09 0.09 0.09 0.09 0.10 0.10 0.11 0.12 0.12 0.13 0.13 0.12 0.13 0.13 0.13 0.13 0.14 0.14 0.13 0.13 0.14 0.14 0.15 0.15 0.15 0.15 0.14 0.14 0.14 0.15 0.14 0.14 0.14 0.15 0.15 0.15 0.17 0.20 0.19 0.19 0.21 0.22 0.23 0.23 0.24 0.24 0.24 0.25 0.25 0.25 0.25 0.25 0.25
0.07 0.07 0.07 0.07 0.08 0.08 0.08 0.09 0.09 0.09 0.10 0.10 0.10 0.11 0.11 0.12 0.12 0.12 0.12 0.12 0.11 0.10 0.09 0.09 0.10 0.10 0.11 0.12 0.12 0.13 0.13 0.13 0.13 0.13 0.13 0.13 0.13 0.13 0.13 0.13 0.12 0.12 0.13 0.14 0.15 0.15 0.16 0.16 0.16 0.16 0.14 0.14 0.14 0.15 0.16 0.16 0.16 0.16 0.19 0.20 0.20 0.17 0.20 0.23 0.24 0.25 0.25 0.25 0.26 0.26 0.26 0.26 0.26 0.27
0.07 0.07 0.07 0.07 0.07 0.08 0.08 0.08 0.09 0.09 0.09 0.10 0.10 0.10 0.11 0.12 0.13 0.13 0.13 0.13 0.12 0.11 0.11 0.10 0.11 0.11 0.12 0.12 0.12 0.13 0.13 0.13 0.14 0.14 0.14 0.13 0.13 0.13 0.13 0.12 0.11 0.12 0.12 0.13 0.14 0.15 0.16 0.17 0.16 0.17 0.16 0.15 0.14 0.15 0.16 0.16 0.16 0.17 0.18 0.19 0.20 0.21 0.23 0.23 0.23 0.24 0.25 0.25 0.24 0.24 0.24 0.24 0.25 0.26
0.06 0.07 0.07 0.07 0.07 0.07 0.08 0.08 0.08 0.08 0.09 0.09 0.09 0.10 0.10 0.11 0.11 0.12 0.13 0.12 0.11 0.11 0.11 0.11 0.11 0.11 0.12 0.12 0.13 0.13 0.13 0.13 0.13 0.14 0.14 0.14 0.13 0.13 0.13 0.12 0.11 0.11 0.11 0.11 0.12 0.14 0.16 0.17 0.17 0.17 0.16 0.16 0.16 0.16 0.16 0.15 0.16 0.18 0.17 0.19 0.20 0.21 0.22 0.24 0.24 0.23 0.24 0.23 0.22 0.23 0.22 0.24 0.25 0.26
0.06 0.06 0.06 0.06 0.07 0.07 0.07 0.07 0.08 0.08 0.08 0.08 0.09 0.09 0.10 0.10 0.10 0.11 0.12 0.12 0.12 0.12 0.12 0.11 0.11 0.11 0.12 0.11 0.12 0.13 0.12 0.13 0.13 0.14 0.13 0.13 0.13 0.12 0.12 0.11 0.11 0.12 0.12 0.11 0.12 0.13 0.14 0.16 0.16 0.16 0.17 0.16 0.17 0.18 0.18 0.16 0.16 0.17 0.19 0.20 0.20 0.20 0.22 0.23 0.24 0.24 0.24 0.23 0.22 0.21 0.21 0.23 0.24 0.25
0.06 0.06 0.06 0.06 0.06 0.07 0.07 0.07 0.07 0.08 0.08 0.08 0.08 0.09 0.09 0.09 0.10 0.10 0.11 0.12 0.13 0.13 0.12 0.12 0.12 0.12 0.11 0.11 0.11 0.12 0.13 0.13 0.13 0.13 0.14 0.13 0.13 0.12 0.11 0.11 0.11 0.12 0.11 0.11 0.12 0.13 0.14 0.14 0.14 0.14 0.14 0.14 0.14 0.16 0.19 0.19 0.17 0.18 0.19 0.20 0.21 0.21 0.22 0.23 0.23 0.23 0.23 0.23 0.24 0.21 0.21 0.21 0.22 0.24
0.06 0.06 0.06 0.06 0.06 0.06 0.07 0.07 0.07 0.07 0.07 0.08 0.08 0.08 0.09 0.09 0.09 0.10 0.10 0.11 0.12 0.12 0.12 0.12 0.12 0.12 0.12 0.12 0.12 0.12 0.12 0.13 0.13 0.13 0.13 0.12 0.12 0.12 0.12 0.11 0.12 0.12 0.12 0.11 0.12 0.13 0.13 0.14 0.13 0.12 0.12 0.12 0.12 0.13 0.15 0.19 0.20 0.19 0.19 0.19 0.21 0.21 0.22 0.22 0.22 0.22 0.22 0.22 0.23 0.22 0.20 0.19 0.20 0.22
0.06 0.06 0.06 0.06 0.06 0.06 0.06 0.07 0.07 0.07 0.07 0.07 0.07 0.08 0.08 0.08 0.09 0.09 0.10 0.11 0.11 0.12 0.12 0.12 0.12 0.12 0.12 0.12 0.12 0.12 0.12 0.12 0.12 0.12 0.12 0.12 0.12 0.12 0.11 0.11 0.12 0.12 0.12 0.12 0.13 0.13 0.14 0.13 0.13 0.13 0.12 0.12 0.12 0.12 0.14 0.18 0.20 0.22 0.21 0.20 0.20 0.22 0.22 0.22 0.22 0.21 0.22 0.22 0.22 0.21 0.20 0.20 0.19 0.21
0.06 0.06 0.06 0.06 0.06 0.06 0.06 0.07 0.07 0.07 0.07 0.07 0.07 0.08 0.08 0.09 0.09 0.09 0.10 0.10 0.10 0.10 0.11 0.12 0.12 0.12 0.12 0.12 0.11 0.11 0.11 0.11 0.12 0.12 0.12 0.12 0.11 0.11 0.11 0.11 0.12 0.12 0.12 0.12 0.13 0.14 0.14 0.13 0.13 0.13 0.13 0.13 0.13 0.13 0.14 0.17 0.18 0.20 0.23 0.22 0.21 0.21 0.22 0.21 0.20 0.20 0.20 0.21 0.21 0.21 0.21 0.18 0.19 0.21
0.05 0.06 0.06 0.06 0.06 0.06 0.06 0.06 0.06 0.06 0.06 0.06 0.07 0.07 0.07 0.08 0.09 0.09 0.09 0.10 0.10 0.10 0.10 0.11 0.12 0.12 0.12 0.12 0.11 0.11 0.10 0.10 0.11 0.11 0.12 0.12 0.12 0.11 0.12 0.12 0.12 0.12 0.12 0.12 0.13 0.13 0.14 0.13 0.13 0.13 0.14 0.14 0.14 0.14 0.16 0.16 0.16 0.19 0.22 0.24 0.23 0.22 0.21 0.22 0.20 0.20 0.19 0.18 0.20 0.21 0.21 0.22 0.23 0.24
0.05 0.05 0.06 0.06 0.06 0.06 0.06 0.06 0.06 0.06 0.06 0.06 0.07 0.07 0.07 0.07 0.08 0.08 0.09 0.09 0.10 0.10 0.10 0.11 0.12 0.12 0.12 0.12 0.11 0.11 0.10 0.10 0.11 0.12 0.12 0.12 0.12 0.12 0.12 0.12 0.11 0.12 0.12 0.12 0.13 0.13 0.13 0.14 0.14 0.14 0.15 0.15 0.17 0.19 0.20 0.19 0.20 0.21 0.22 0.23 0.25 0.23 0.22 0.23 0.21 0.20 0.19 0.20 0.20 0.19 0.19 0.21 0.20 0.22
0.05 0.05 0.05 0.06 0.06 0.06 0.06 0.06 0.06 0.06 0.06 0.07 0.07 0.07 0.07 0.07 0.08 0.08 0.09 0.09 0.09 0.09 0.10 0.10 0.11 0.12 0.12 0.12 0.12 0.11 0.11 0.11 0.12 0.12 0.12 0.12 0.12 0.12 0.12 0.12 0.12 0.12 0.12 0.12 0.13 0.13 0.14 0.15 0.16 0.17 0.17 0.17 0.20 0.21 0.20 0.17 0.16 0.18 0.19 0.21 0.24 0.24 0.24 0.24 0.22 0.21 0.20 0.21 0.21 0.20 0.19 0.19 0.19 0.19
0.05 0.05 0.05 0.06 0.06 0.06 0.06 0.06 0.06 0.06 0.06 0.07 0.07 0.07 0.07 0.08 0.08 0.08 0.08 0.09 0.09 0.09 0.10 0.10 0.11 0.11 0.12 0.12 0.12 0.12 0.11 0.11 0.12 0.11 0.12 0.12 0.12 0.12 0.12 0.12 0.12 0.13 0.12 0.12 0.13 0.14 0.15 0.17 0.17 0.17 0.17 0.18 0.19 0.17 0.16 0.16 0.16 0.17 0.19 0.20 0.22 0.24 0.24 0.24 0.24 0.24 0.23 0.21 0.20 0.19 0.19 0.19 0.19 0.17
0.05 0.05 0.05 0.06 0.06 0.06 0.06 0.06 0.06 0.06 0.06 0.07 0.07 0.07 0.07 0.08 0.08 0.08 0.08 0.08 0.09 0.09 0.09 0.10 0.10 0.11 0.11 0.12 0.12 0.12 0.12 0.12 0.12 0.12 0.12 0.13 0.12 0.12 0.12 0.13 0.13 0.13 0.13 0.13 0.15 0.15 0.15 0.16 0.16 0.17 0.17 0.18 0.18 0.18 0.16 0.17 0.18 0.18 0.18 0.19 0.20 0.21 0.22 0.23 0.24 0.24 0.24 0.24 0.23 0.23 0.22 0.20 0.18 0.16
0.05 0.05 0.05 0.06 0.06 0.06 0.06 0.06 0.06 0.06 0.06 0.07 0.07 0.07 0.07 0.07 0.08 0.08 0.08 0.08 0.08 0.09 0.09 0.10 0.10 0.11 0.11 0.12 0.13 0.13 0.13 0.12 0.13 0.13 0.12 0.13 0.13 0.12 0.12 0.13 0.14 0.13 0.13 0.14 0.14 0.15 0.16 0.16 0.17 0.17 0.17 0.17 0.18 0.18 0.17 0.18 0.18 0.18 0.19 0.19 0.19 0.19 0.20 0.21 0.22 0.23 0.23 0.24 0.24 0.24 0.24 0.24 0.23 0.22
0.05 0.05 0.05 0.06 0.06 0.06 0.06 0.06 0.06 0.06 0.06 0.06 0.07 0.07 0.07 0.07 0.08 0.08 0.08 0.08 0.09 0.09 0.09 0.10 0.10 0.11 0.11 0.12 0.12 0.13 0.13 0.13 0.13 0.13 0.13 0.13 0.13 0.13 0.12 0.13 0.14 0.14 0.14 0.15 0.15 0.15 0.16 0.17 0.17 0.17 0.17 0.17 0.18 0.19 0.18 0.18 0.18 0.18 0.19 0.19 0.17 0.19 0.20 0.20 0.19 0.18 0.19 0.20 0.22 0.23 0.23 0.23 0.22 0.22
Wind_Speed
65 66 66 66 67 67 67 68 68 68 69 69 70 70 71 71 72 73 73 73 72 72 72 72 71 70 70 70 69 69 69 69 69 68 69 69 69 68 68 67 66 65 65 64 64 64 64 64 64 64 63 63 62 61 61 60 60 60 59 58 58 57 57 57 56 56 55 55 55 54 54 53 53 52
67 67 68 68 68 68 68 69 69 69 70 70 70 71 71 72 73 73 74 75 74 73 73 73 72 72 71 71 71 71 70 71 70 69 69 70 70 70 69 69 68 67 66 66 65 65 65 65 65 65 65 64 63 62 62 61 61 61 60 60 59 59 59 58 58 57 57 56 56 56 55 54 54 54
68 69 70 70 70 70 70 70 70 70 70 71 71 71 71 72 72 73 74 76 76 75 74 74 74 74 74 74 73 73 72 72 72 71 70 70 71 71 71 70 69 68 67 66 66 66 66 66 66 66 66 65 64 63 63 62 62 62 61 61 60 60 60 60 59 59 58 58 57 57 56 56 55 55
67 68 69 69 70 70 70 71 71 71 71 71 71 72 73 73 73 74 75 76 78 78 76 76 76 75 75 76 76 75 75 74 74 74 73 71 71 71 72 71 71 70 68 67 67 67 67 67 67 67 67 67 66 64 64 63 63 62 62 61 61 61 61 60 60 60 59 59 58 58 57 57 57 56
66 67 68 68 68 68 69 69 69 70 70 70 71 71 72 73 74 74 75 77 79 80 79 78 78 78 77 76 76 76 76 76 75 76 75 74 72 71 72 72 72 71 70 69 68 68 68 68 68 68 68 68 67 66 66 65 64 63 62 62 62 62 62 61 61 61 60 59 59 59 58 58 58 57
65 65 66 66 66 66 67 67 68 68 68 69 69 70 70 71 72 72 74 75 77 79 79 78 79 80 79 79 79 77 77 76 76 76 76 76 75 74 73 73 73 72 72 70 69 68 69 69 69 69 68 68 68 68 67 66 65 64 63 63 63 63 63 62 62 61 60 60 59 59 59 59 59 59
64 64 65 65 65 65 65 66 66 66 67 67 68 68 68 69 70 70 71 72 74 76 77 76 76 77 78 78 79 79 78 77 77 76 76 76 76 76 74 74 74 74 73 72 70 69 69 70 70 69 69 69 68 68 68 67 66 65 65 64 64 63 63 63 62 61 61 60 60 60 60 60 60 60
63 63 63 63 63 63 64 64 64 65 65 66 66 67 67 68 68 69 69 70 72 73 74 74 73 74 74 74 75 76 77 77 77 76 76 76 76 76 76 75 75 75 74 73 71 70 70 71 71 70 69 69 68 68 68 68 67 66 66 65 64 64 64 64 63 62 62 62 61 61 61 61 61 61
61 61 61 61 61 62 62 62 62 63 63 64 64 65 66 66 66 67 67 68 69 70 72 72 72 73 73 73 73 73 73 74 76 76 75 75 74 74 76 76 75 75 75 74 72 71 70 71 71 71 70 69 68 68 68 68 68 68 67 66 66 65 65 64 64 64 64 64 63 63 63 63 62 62
59 59 59 59 59 59 60 60 60 60 61 61 62 63 63 64 64 65 66 67 68 69 70 71 71 71 72 73 72 72 72 72 73 74 75 74 73 72 72 73 73 74 74 73 72 71 70 70 71 71 70 69 69 69 69 69 69 69 68 68 67 67 66 66 66 66 66 66 65 65 64 64 63 63
56 56 56 56 56 56 57 57 57 58 58 59 59 60 60 61 61 62 63 63 64 66 67 67 68 69 69 70 70 71 71 71 71 71 72 73 72 71 71 70 70 70 71 71 71 71 70 70 70 70 70 69 69 69 69 69 69 70 70 70 69 68 68 68 68 67 67 67 67 66 66 65 65 64
53 53 54 54 54 54 54 55 55 55 55 56 56 57 57 57 58 59 59 60 60 61 62 63 64 65 66 67 67 67 68 70 70 69 69 70 71 71 71 70 68 67 67 68 69 69 69 68 68 69 69 69 69 69 69 69 69 69 70 70 70 69 69 69 68 68 67 67 67 67 66 66 66 66
50 50 50 50 51 51 52 52 52 52 53 53 53 53 53 53 54 55 56 56 57 58 59 60 60 61 62 63 63 63 64 66 68 67 66 66 68 68 69 70 69 67 66 67 67 67 67 66 66 66 66 67 68 68 68 68 68 69 70 70 69 69 69 69 68 68 67 67 67 67 67 67 66 66
47 47 47 47 48 49 49 49 50 50 50 50 50 50 50 50 50 51 52 53 54 54 55 56 57 57 59 60 60 61 61 62 64 66 65 63 63 64 66 67 68 67 66 65 66 66 66 66 65 65 65 65 66 66 66 67 67 68 69 69 70 70 69 69 69 68 68 68 67 67 67 67 67 67
44 44 44 45 45 46 46 46 47 47 48 48 49 49 49 49 50 50 50 51 51 52 53 53 54 54 56 57 57 58 59 59 60 62 63 62 60 59 61 62 63 64 64 64 64 64 64 64 64 64 63 64 64 64 64 65 65 66 68 69 69 69 69 70 69 69 69 68 68 68 68 68 68 68
41 41 41 42 42 42 42 43 43 43 44 45 46 47 48 49 50 51 51 51 51 51 51 52 52 52 53 54 54 55 55 55 56 58 60 61 59 58 58 58 59 59 60 61 61 62 62 62 62 62 62 62 62 62 63 63 63 64 66 67 68 69 69 69 70 70 69 69 68 68 68 68 68 68
38 38 39 39 39 39 39 40 39 40 41 42 44 45 46 47 49 50 51 51 51 51 51 51 51 51 51 51 52 52 52 53 53 54 56 58 58 57 56 56 57 57 56 56 58 59 59 59 60 60 60 59 58 59 60 60 61 62 63 64 65 66 67 68 69 69 68 68 68 68 68 67 67 67
36 37 37 37 37 37 37 37 38 38 40 41 42 43 44 45 46 47 48 49 50 51 51 51 51 50 50 50 50 50 51 51 52 52 52 54 56 56 55 54 55 56 55 55 55 55 55 56 57 57 57 56 56 56 57 58 58 59 60 61 62 63 64 65 66 67 67 67 67 67 67 67 67 67
35 36 36 37 37 37 37 37 38 38 39 40 42 43 43 44 44 45 46 46 47 48 49 50 50 49 49 49 49 49 49 51 51 51 51 52 53 54 53 52 52 54 55 54 53 53 53 53 54 54 53 53 53 54 55 56 57 58 58 59 60 61 62 63 64 65 65 65 65 65 65 66 66 66
34 35 36 37 37 38 38 38 39 39 40 41 42 42 43 43 44 44 45 46 47 47 47 48 48 48 48 48 48 48 48 49 49 49 50 51 52 52 51 50 50 51 53 53 52 50 50 51 51 51 51 50 50 51 52 53 54 55 56 56 57 58 59 60 61 62 63 63 64 64 64 64 64 64
34 35 36 37 37 37 37 38 39 40 40 41 42 42 43 43 44 44 44 45 47 47 47 47 47 47 47 47 47 47 47 47 46 47 48 50 51 50 48 47 48 48 49 51 50 49 48 48 49 49 49 49 49 49 49 50 51 52 53 53 54 55 56 57 58 58 59 60 61 61 62 62 63 63
34 35 37 37 37 37 37 38 39 40 40 41 42 42 43 43 43 43 43 43 43 44 44 45 45 45 45 45 46 46 46 46 45 45 46 47 48 49 48 46 46 45 47 48 48 47 46 46 46 46 46 47 47 47 47 47 48 49 49 50 51 52 52 53 54 55 56 57 57 58 59 60 60 61
34 35 36 37 37 37 38 39 40 41 41 41 42 41 41 41 41 41 41 41 40 40 41 41 41 41 41 42 42 43 45 45 45 45 45 45 47 48 47 46 44 43 43 46 46 45 44 44 44 44 43 43 44 45 45 45 46 46 47 46 47 47 48 49 50 51 52 53 54 55 56 57 58 58
35 35 35 35 36 38 38 39 40 41 41 41 41 40 40 40 40 39 39 39 39 38 38 38 38 38 38 39 39 40 42 43 43 43 43 44 46 47 46 45 44 42 41 42 44 44 43 42 43 43 43 42 41 41 41 42 42 43 44 43 43 43 44 45 46 47 49 50 51 52 53 54 55 55
35 35 35 35 36 37 37 38 39 39 40 40 39 39 39 39 40 39 38 37 37 36 35 35 34 34 34 35 36 37 38 39 40 41 42 43 45 46 45 44 43 42 41 41 42 42 41 41 41 41 41 41 40 39 39 39 39 39 40 40 40 40 40 41 41 43 44 46 47 49 50 52 53 53
35 35 35 35 36 36 37 37 38 38 39 39 38 37 37 38 37 36 35 35 34 33 32 31 30 30 30 30 31 33 34 35 37 39 40 41 42 44 44 43 42 41 40 40 41 41 40 40 40 40 39 39 38 38 37 37 36 36 36 37 37 38 38 38 38 39 40 41 42 44 47 48 50 51
35 34 34 34 35 36 36 36 36 36 36 35 33 33 33 33 31 30 29 29 29 29 28 27 26 26 26 26 27 28 29 31 33 35 37 39 40 41 41 42 42 41 40 39 39 40 40 39 39 38 38 37 36 35 35 35 34 33 34 35 35 36 36 36 36 37 37 37 38 40 42 44 46 47
32 32 32 33 34 35 34 32 32 31 29 28 28 28 28 27 24 23 21 21 22 23 23 23 23 23 23 23 24 25 26 27 29 32 34 36 38 38 38 38 39 39 38 38 38 38 38 38 37 37 36 35 34 33 33 33 32 32 32 33 33 34 34 34 34 34 34 35 36 37 38 39 40 42
30 30 32 32 31 30 27 25 23 21 21 21 22 23 23 22 21 20 19 18 18 19 20 21 20 20 20 20 21 22 24 26 28 30 32 34 35 34 34 35 36 36 36 36 36 36 36 37 36 35 35 34 33 32 31 30 30 30 30 30 31 31 31 31 31 31 32 32 32 33 34 35 36 37
29 30 30 28 26 22 20 18 17 16 17 18 18 19 20 21 21 21 20 19 19 18 18 18 19 19 18 18 18 19 20 23 25 27 30 32 32 32 32 32 33 34 34 34 34 34 35 35 34 33 33 33 31 31 30 28 28 27 27 28 28 28 28 29 29 29 29 29 29 30 30 31 32 33
28 28 25 23 20 18 17 16 15 15 15 15 15 16 16 16 17 18 19 19 19 18 18 17 17 17 17 16 15 16 18 20 22 24 27 29 30 30 31 31 31 32 32 32 32 33 34 34 33 32 31 31 30 30 29 27 26 26 25 25 26 26 26 27 27 27 27 26 26 26 27 28 29 30
26 24 21 19 17 16 16 15 14 14 14 14 13 13 13 12 12 12 13 14 16 16 16 16 16 16 15 14 13 15 18 19 21 23 25 26 28 29 29 30 30 30 31 31 31 32 32 32 32 30 29 29 29 29 28 27 26 25 24 24 25 25 24 24 25 25 25 24 24 24 25 26 26 27
22 20 18 17 16 15 15 14 13 13 13 13 12 12 11 11 10 9 6 7 10 12 13 14 14 15 14 13 13 16 19 19 20 22 23 24 26 27 28 28 29 29 30 30 30 30 30 31 30 29 28 28 27 27 27 26 26 26 24 24 24 24 23 23 23 24 24 23 23 23 23 23 24 24
19 17 16 15 15 15 14 13 13 13 12 12 11 11 10 9 8 8 5 1 5 8 10 11 13 13 13 12 13 16 18 19 20 21 22 23 24 25 26 27 28 28 29 29 30 30 29 29 29 28 28 27 26 25 25 26 26 26 25 24 23 23 22 22 22 22 22 22 22 22 21 21 21 21
17 16 15 14 14 14 13 13 13 13 12 11 11 10 9 7 7 7 6 4 0 3 6 7 9 11 12 13 14 15 16 18 18 19 21 22 23 24 25 26 27 27 28 29 30 29 28 27 28 28 27 26 25 24 25 26 26 25 24 23 22 22 22 22 21 21 21 20 20 21 20 19 19 19
16 16 15 14 13 13 13 13 13 13 12 11 10 9 8 7 6 5 5 4 2 2 4 6 7 9 11 13 14 15 16 17 18 19 20 22 23 24 25 25 26 27 28 28 29 29 28 27 27 26 25 25 24 23 24 25 26 24 23 22 21 21 21 21 20 20 20 19 19 19 19 18 18 18
17 16 15 14 13 13 13 13 13 13 12 12 10 9 8 7 6 5 4 4 3 2 4 6 7 8 10 12 13 15 16 17 18 19 20 22 23 23 24 25 26 27 27 28 29 29 28 28 27 26 25 24 24 23 22 23 24 25 24 22 21 20 20 20 19 19 19 19 18 18 17 17 18 17
17 16 15 14 13 13 13 13 12 13 12 12 11 10 8 7 7 6 5 4 4 4 4 6 7 8 9 11 13 14 16 18 19 20 21 22 23 24 24 25 26 26 27 27 29 29 28 27 27 26 25 24 23 22 22 22 23 24 24 23 21 19 19 19 19 19 18 17 17 17 16 16 16 15
17 16 15 14 13 13 13 12 12 12 12 11 11 10 9 8 8 7 6 5 5 5 5 6 8 9 10 11 13 15 17 18 20 21 21 23 24 24 24 25 25 26 26 27 28 28 27 27 27 26 25 24 22 22 22 22 23 24 24 23 21 19 18 18 19 19 18 17 16 16 15 15 14 14
17 16 15 14 13 13 12 12 12 11 11 10 10 9 8 8 8 7 6 6 5 5 4 5 7 9 10 11 12 14 17 18 20 21 22 23 24 25 25 25 25 26 26 26 26 26 26 26 25 25 25 24 22 21 22 22 23 24 23 22 21 19 18 18 18 17 17 16 15 15 15 15 14 14
17 16 14 14 13 12 11 11 11 10 10 9 9 8 8 7 7 6 5 5 4 4 3 3 4 6 9 11 11 13 16 18 19 21 22 24 25 25 25 25 25 26 26 25 25 26 26 25 24 25 26 24 22 21 22 23 23 23 23 22 21 20 18 17 16 16 16 15 14 14 14 14 13 13
17 16 14 13 12 11 11 10 10 9 9 9 8 8 7 5 4 4 3 3 2 2 2 2 2 5 8 11 12 14 16 18 20 22 23 24 25 25 24 24 25 25 25 24 24 25 24 24 24 25 25 24 22 22 22 23 23 23 22 22 21 19 18 17 16 15 15 15 13 12 12 13 12 12
17 16 14 13 12 11 10 9 9 9 8 8 7 6 5 3 2 2 1 1 2 2 2 3 4 5 8 11 13 15 17 19 20 22 23 24 24 24 23 23 24 25 24 24 24 23 23 23 24 25 25 25 23 22 23 23 24 23 23 22 20 19 18 17 15 14 14 13 12 11 11 12 12 11
17 15 14 13 11 10 9 8 8 7 7 6 5 4 2 2 2 1 2 2 3 3 4 4 5 7 9 11 14 16 18 19 20 22 23 24 24 23 22 22 23 24 24 23 23 23 23 24 25 26 26 25 23 22 23 24 24 23 23 22 20 19 18 17 15 14 13 12 10 9 9 9 9 9
16 15 14 12 11 9 8 7 7 6 6 5 4 3 2 2 2 3 4 4 4 5 5 6 8 9 10 12 14 16 17 19 20 22 23 23 23 23 22 22 22 22 22 22 22 22 23 24 26 26 26 24 23 22 23 24 24 23 22 21 20 19 18 16 15 14 12 11 10 9 9 8 8 8
Wind_Direction
272 272 272 271 271 270 269 269 268 268 268 267 267 267 267 267 267 267 266 265 264 264 263 263 263 262 261 261 261 260 260 260 260 260 258 257 256 255 254 254 253 254 254 254 254 253 252 251 250 250 249 249 249 249 248 248 248 247 247 246 246 246 246 246 246 245 245 245 245 245 245 245 245 244
272 272 271 271 270 270 270 269 269 268 268 267 267 267 266 266 267 267 267 266 264 264 264 263 262 262 261 261 261 260 259 259 259 260 259 258 256 255 254 253 253 252 253 254 253 253 252 251 250 249 249 249 248 248 248 248 247 247 246 246 245 245 245 245 245 245 245 244 245 245 245 245 245 244
272 272 271 271 270 270 270 269 269 268 268 267 267 267 266 266 266 266 267 266 265 264 264 263 263 262 262 262 262 261 260 259 259 259 259 259 257 255 254 253 252 252 252 252 253 252 252 251 250 250 249 248 248 248 248 248 247 247 246 245 245 245 245 244 244 244 244 244 244 245 245 245 245 245
273 272 272 271 270 270 270 269 269 268 268 267 267 266 266 265 265 265 266 266 265 264 264 264 263 263 262 262 261 261 260 259 258 258 258 259 258 256 254 253 252 251 251 251 251 252 251 251 250 250 249 248 248 247 247 247 247 246 246 245 245 245 245 244 244 244 243 244 244 245 245 245 245 245
274 273 272 272 271 271 270 269 269 268 268 267 267 266 266 265 265 265 265 266 265 264 263 263 263 262 262 262 261 261 260 260 259 258 257 257 258 257 255 254 252 251 251 250 250 251 251 250 250 249 249 248 248 247 247 247 246 246 245 244 244 244 244 244 244 244 243 244 244 245 245 245 245 245
275 274 273 273 272 271 271 270 269 269 268 268 267 267 266 266 265 265 265 265 265 265 264 263 263 262 262 261 261 260 260 260 259 257 257 256 256 256 256 254 253 251 251 250 250 250 250 250 249 249 248 248 247 247 247 247 246 245 245 244 244 244 244 244 244 244 244 244 245 245 245 245 245 245
275 275 274 273 273 272 271 270 270 269 269 268 267 267 266 266 265 265 264 264 265 265 264 263 263 262 261 261 260 259 259 259 258 257 256 255 255 255 255 255 253 252 251 250 250 249 249 249 249 248 248 247 247 246 246 246 246 245 245 244 244 243 243 243 244 244 245 245 246 246 246 245 245 245
276 275 275 274 273 272 271 271 270 269 269 268 267 267 266 266 265 265 264 264 264 264 264 263 262 262 261 261 260 259 259 258 257 257 256 255 254 254 254 254 253 252 250 250 249 248 248 248 248 248 247 247 246 246 245 245 246 245 245 244 244 243 243 244 244 245 245 245 246 246 246 246 245 245
277 276 275 274 274 273 272 271 270 269 269 268 267 267 266 266 265 265 264 264 264 264 264 263 262 261 261 260 260 259 259 258 257 256 256 255 254 254 253 253 253 252 250 249 249 248 247 247 248 247 247 246 246 245 245 245 245 245 245 244 244 244 244 245 245 245 245 245 246 246 246 246 246 245
277 277 276 275 274 273 272 272 271 270 269 269 268 267 267 266 266 265 265 264 264 263 263 263 262 262 261 260 259 258 258 258 257 256 255 255 254 253 252 252 252 251 250 249 248 247 247 246 246 247 246 246 245 245 244 244 244 244 244 245 245 245 245 245 245 245 245 245 245 246 246 246 246 245
278 277 276 276 275 274 273 272 271 271 270 269 268 268 267 267 266 266 265 265 264 264 263 263 262 262 261 260 259 258 257 257 257 256 255 254 253 252 252 251 251 250 250 249 247 247 246 245 245 245 245 245 245 244 244 244 243 243 244 244 245 245 246 246 246 245 245 245 245 245 245 245 245 245
279 278 277 276 275 274 273 273 272 271 270 270 269 268 268 267 266 266 265 265 264 264 263 263 262 262 261 260 259 258 256 255 255 255 254 253 252 251 251 250 250 250 249 248 247 246 245 244 244 244 244 244 244 244 243 243 243 243 243 243 244 245 245 245 245 245 245 245 245 245 245 245 245 245
279 279 278 277 276 275 274 273 272 271 270 269 269 269 268 267 266 265 265 264 264 263 263 263 262 262 261 260 259 258 256 255 254 254 254 253 252 251 250 249 248 249 249 248 247 245 244 244 243 243 244 244 244 243 243 243 243 243 243 243 243 244 244 245 245 245 244 244 244 244 244 244 244 244
281 280 279 278 276 275 274 273 272 271 270 269 269 268 268 267 266 266 265 264 264 263 263 262 262 261 260 259 258 258 257 256 254 253 252 252 252 250 248 247 246 246 247 246 245 244 243 243 242 242 243 244 243 242 242 242 242 242 242 243 243 243 244 244 244 244 244 244 244 244 244 244 244 244
282 281 280 279 278 276 275 274 272 271 270 269 269 268 268 267 267 266 266 265 265 264 264 263 262 261 260 259 258 257 256 255 254 252 251 250 251 250 247 246 245 244 244 244 244 243 242 241 241 241 242 243 242 242 242 242 242 242 242 242 243 243 244 244 244 244 244 244 244 244 244 244 244 244
284 282 281 280 278 277 275 274 272 271 270 269 269 269 268 268 267 267 266 266 265 265 264 264 262 261 261 260 258 257 256 255 253 252 250 248 248 248 247 245 243 242 242 242 242 242 241 240 240 240 241 241 241 241 242 242 242 243 243 243 243 243 244 244 244 244 244 244 244 243 243 243 243 243
285 284 283 281 280 279 277 275 273 272 271 271 270 270 270 269 269 268 268 267 266 265 265 264 263 262 262 260 258 257 255 254 252 251 249 247 245 246 247 245 243 241 240 240 240 240 239 239 239 239 240 240 239 240 241 241 242 242 243 243 243 243 243 243 243 243 244 243 243 243 243 243 243 243
287 286 285 283 282 281 279 276 274 273 273 273 273 272 272 271 270 270 269 268 267 266 265 264 264 263 262 260 259 257 255 253 251 249 248 246 243 243 245 245 243 240 237 237 238 238 238 237 237 238 238 238 238 238 239 240 241 242 243 244 244 243 243 243 243 243 243 243 243 242 242 242 242 242
289 288 286 284 283 282 280 277 276 275 275 274 274 273 273 272 272 271 270 269 268 267 265 265 264 263 262 260 259 257 254 252 250 248 246 245 242 242 243 244 242 238 235 235 237 237 236 235 235 236 236 236 236 237 239 240 241 242 243 244 244 244 243 243 243 242 242 242 242 242 242 242 242 242
291 289 288 286 285 283 281 278 277 276 276 275 274 274 273 273 272 271 271 270 269 268 266 265 264 262 261 260 258 256 253 251 249 247 244 242 240 239 240 241 240 237 234 233 234 235 235 233 233 234 234 235 235 237 238 240 241 242 243 244 244 244 243 243 242 242 241 241 241 241 241 241 241 241
293 292 291 289 287 285 282 280 278 277 277 276 276 275 275 274 274 273 273 272 270 269 267 265 263 261 260 258 256 254 251 249 247 244 241 239 237 236 236 238 238 236 232 231 231 232 233 232 232 233 234 235 235 236 238 240 241 242 243 243 244 243 243 242 242 241 241 240 240 240 240 240 240 240
296 295 294 292 290 287 284 281 279 278 278 278 277 277 276 275 275 275 274 273 271 269 268 265 263 261 260 258 255 253 250 248 245 242 239 237 234 233 233 234 236 235 231 229 229 230 231 231 231 232 234 235 235 236 238 239 241 242 242 242 242 242 242 241 241 240 240 240 240 239 239 239 239 239
299 298 296 294 292 289 286 284 281 280 280 279 279 278 277 277 276 276 275 273 271 269 267 266 264 261 259 258 255 251 249 246 244 241 238 235 232 230 230 232 233 233 230 227 227 228 229 229 230 232 233 234 235 236 238 239 240 241 241 240 241 241 241 241 240 239 239 239 239 239 239 239 239 239
301 300 298 296 294 291 289 286 284 283 282 281 279 278 279 278 278 278 276 272 270 269 267 265 263 260 258 257 254 250 247 244 241 239 237 233 230 228 228 229 230 231 229 226 225 226 228 229 231 232 231 231 233 235 237 238 239 239 239 238 239 239 240 239 239 238 238 238 238 238 238 238 238 238
302 301 299 298 296 294 292 289 287 285 283 281 280 279 278 278 278 277 274 271 269 268 267 264 262 259 256 254 252 249 247 243 239 237 234 231 228 226 225 227 228 230 229 226 224 226 228 229 230 229 229 229 231 233 235 236 237 237 236 236 236 237 237 237 237 237 237 238 238 238 238 238 238 238
304 303 302 301 299 298 296 293 290 288 285 283 281 279 277 278 278 276 272 269 267 266 264 261 258 255 253 251 250 248 245 241 236 233 230 228 226 224 224 225 226 227 227 225 224 226 227 227 226 225 225 227 229 232 234 235 235 234 233 233 234 234 235 235 235 235 236 236 237 237 237 237 237 237
305 305 303 302 302 301 299 296 294 291 289 286 282 279 278 279 279 277 272 267 262 260 259 256 254 252 250 248 248 246 243 238 232 228 226 224 222 221 222 223 224 225 225 224 224 224 224 223 221 221 222 224 226 229 231 232 233 231 230 231 232 232 233 234 234 234 234 235 236 236 236 236 236 236
307 306 305 305 305 304 302 300 298 296 293 289 284 281 280 280 280 278 273 266 260 256 253 251 251 249 246 245 244 243 239 235 229 225 222 220 218 218 220 220 221 222 222 221 221 221 220 219 218 219 220 222 224 226 227 229 230 229 229 229 230 230 231 232 232 232 233 234 235 235 235 235 235 235
309 308 309 309 308 307 305 305 304 303 301 296 290 285 283 280 279 276 271 265 259 254 251 248 245 244 242 242 242 240 236 231 225 221 217 214 213 214 216 216 217 217 217 217 217 217 216 215 215 216 218 219 221 223 224 226 227 228 227 226 226 228 229 230 231 231 231 232 232 232 232 232 232 233
312 312 313 313 311 310 312 313 314 312 310 306 301 295 289 283 278 275 269 262 256 251 247 243 240 239 240 241 241 239 231 223 217 213 209 207 207 209 210 210 211 212 213 213 214 213 212 212 212 214 216 217 218 219 221 222 224 225 224 221 221 224 226 227 228 228 227 228 228 228 229 229 229 230
317 317 317 316 316 317 319 320 319 317 316 314 309 305 301 292 284 278 270 260 251 246 241 237 237 238 238 241 239 227 215 207 204 203 202 203 204 206 207 207 208 209 210 210 210 210 210 209 210 212 214 214 214 216 218 220 220 221 220 218 219 221 223 224 224 223 222 223 224 224 225 227 227 228
320 320 319 321 323 325 325 323 323 323 323 323 320 318 317 312 304 294 277 257 244 237 233 232 233 233 235 237 229 210 200 198 197 198 200 202 203 204 204 205 206 206 206 206 206 206 206 206 207 210 211 210 211 213 216 218 218 217 217 217 218 219 219 219 218 217 218 220 220 221 223 225 225 225
321 320 322 326 330 331 329 327 329 330 330 330 331 330 329 328 329 326 302 254 233 228 227 227 227 227 226 225 213 200 196 196 196 196 198 200 201 201 202 203 203 202 202 202 202 201 202 204 206 207 207 207 209 211 212 214 215 214 215 215 216 216 215 214 213 213 215 217 218 218 220 221 221 221
322 321 325 329 331 332 331 331 333 335 333 332 335 336 334 335 342 351 353 291 221 221 223 223 222 219 214 206 197 193 193 194 194 195 196 196 197 198 198 199 199 198 198 199 199 198 199 201 202 204 205 206 208 209 208 209 210 211 212 211 211 212 211 209 209 210 211 212 214 214 214 214 216 218
325 325 327 330 330 330 331 333 334 334 333 332 333 337 338 338 343 354 4 11 167 196 201 206 207 205 201 196 192 190 190 190 192 193 193 193 193 193 194 195 195 195 196 197 196 196 196 196 197 199 202 204 205 207 207 207 207 208 207 206 207 208 207 205 205 205 206 208 210 209 209 210 213 218
329 328 329 329 329 328 328 331 333 332 331 329 328 332 337 339 339 343 348 349 347 182 182 185 189 193 196 197 197 196 194 193 193 193 192 191 191 191 192 193 193 192 193 195 196 195 194 193 193 194 197 198 200 203 204 204 204 204 202 201 202 203 201 200 201 201 202 205 206 205 207 210 214 218
332 330 328 328 328 327 325 326 328 328 327 325 323 322 325 328 329 329 326 323 311 246 211 202 198 199 200 200 201 201 200 199 197 194 192 191 190 191 191 191 190 189 190 192 192 191 190 189 190 192 193 194 197 199 199 199 200 200 198 197 197 196 195 195 196 197 199 202 204 205 208 211 213 216
334 332 329 326 326 325 323 323 324 323 322 321 319 316 313 312 315 317 315 307 294 274 248 227 217 213 210 207 205 203 201 199 198 196 193 190 189 189 188 186 186 187 188 188 187 186 186 187 189 191 192 193 194 195 194 193 195 195 195 193 192 190 191 193 195 196 197 199 202 206 209 211 212 213
335 333 330 327 325 324 322 320 320 319 318 318 317 314 309 306 306 306 305 298 288 280 266 244 229 221 215 211 207 204 201 198 196 194 192 188 186 185 184 183 183 184 183 182 181 182 185 187 189 191 191 191 191 191 191 191 191 190 190 190 188 187 190 193 194 194 196 198 200 203 206 208 209 212
335 333 330 328 327 325 323 320 318 316 315 315 313 310 305 300 297 296 294 290 286 282 270 249 231 217 210 206 203 200 197 195 192 189 187 185 183 182 181 181 181 180 179 178 178 180 184 186 188 189 189 189 189 189 189 188 187 186 187 188 187 187 189 190 190 191 193 195 198 203 206 208 210 214
337 333 331 329 328 327 325 323 320 317 315 313 311 309 303 296 294 293 288 280 278 272 256 238 220 203 196 192 190 188 187 186 183 181 179 177 177 176 176 177 178 177 177 177 178 180 183 185 186 186 186 186 186 186 186 184 182 182 184 185 185 186 187 187 188 191 194 196 199 203 206 207 210 215
339 336 332 330 328 328 327 326 323 321 320 319 317 315 311 305 300 295 281 260 250 241 217 192 180 180 180 178 174 173 174 174 173 173 173 171 170 170 171 173 175 176 176 177 177 179 182 185 185 183 184 185 185 184 184 182 180 179 181 182 183 185 187 187 189 192 194 196 199 202 204 207 212 219
343 340 337 334 330 328 327 327 326 326 326 326 327 326 325 326 325 307 255 196 175 167 160 156 155 158 163 166 165 164 164 166 167 169 171 170 167 167 169 171 173 174 176 177 177 180 183 185 183 182 182 185 186 184 182 180 178 178 179 180 182 184 185 186 185 185 187 191 196 200 205 210 215 221
345 343 342 340 337 333 330 328 329 332 334 336 341 348 354 1 12 63 131 135 133 133 133 139 145 146 147 153 158 160 161 162 165 168 170 170 169 169 171 171 171 173 176 177 179 181 183 182 181 180 182 184 185 183 180 179 178 178 179 180 181 183 183 183 182 183 185 187 190 194 199 204 207 211
347 346 346 345 344 341 338 335 337 342 347 353 4 21 38 48 68 102 121 119 116 120 123 127 133 136 138 143 152 157 158 160 163 166 168 169 170 171 172 172 171 172 175 177 179 180 180 178 178 180 182 184 184 181 178 178 178 179 179 180 183 185 185 184 184 186 186 187 188 191 193 194 195 197